TimePST,TemperatureF,Dew PointF,Humidity,Sea Level PressureIn,VisibilityMPH,Wind Direction,Wind SpeedMPH,Gust SpeedMPH,PrecipitationIn,Events,Conditions,WindDirDegrees,DateUTC
12:53 AM,57.0,53.1,87,30.15,4.0,Calm,Calm,-,N/A,,Clear,0,2012-12-05 08:53:00
1:42 AM,55.4,51.8,88,30.14,2.5,Calm,Calm,-,N/A,,Partly Cloudy,0,2012-12-05 09:42:00
1:45 AM,55.4,51.8,88,30.14,0.8,NE,3.5,-,N/A,,Mist,50,2012-12-05 09:45:00
1:51 AM,55.4,51.8,88,30.14,0.2,ENE,3.5,-,N/A,Fog,Fog,60,2012-12-05 09:51:00
1:52 AM,55.0,52.0,89,30.14,0.2,ENE,3.5,-,N/A,Fog,Fog,70,2012-12-05 09:52:00
2:00 AM,55.4,51.8,88,30.14,0.5,ENE,3.5,-,N/A,Fog,Fog,70,2012-12-05 10:00:00
2:08 AM,55.4,53.6,94,30.14,0.2,Calm,Calm,-,N/A,Fog,Fog,0,2012-12-05 10:08:00
2:18 AM,55.4,53.6,94,30.14,0.2,East,3.5,-,N/A,Fog,Fog,90,2012-12-05 10:18:00
2:53 AM,55.9,54.0,93,30.12,0.2,East,3.5,-,N/A,Fog,Fog,100,2012-12-05 10:53:00
3:53 AM,55.9,53.1,90,30.11,0.2,Calm,Calm,-,N/A,Fog,Fog,0,2012-12-05 11:53:00
4:53 AM,57.0,54.0,89,30.10,0.2,Calm,Calm,-,N/A,Fog,Fog,0,2012-12-05 12:53:00
6:53 AM,57.0,54.0,89,30.13,0.2,East,3.5,-,N/A,Fog,Fog,80,2012-12-05 14:53:00
7:17 AM,57.2,53.6,88,30.13,0.5,Variable,3.5,-,N/A,Fog,Fog,0,2012-12-05 15:17:00
7:53 AM,57.0,54.0,89,30.13,0.2,Variable,3.5,-,N/A,Fog,Fog,0,2012-12-05 15:53:00
8:26 AM,57.2,53.6,88,30.13,1.2,Calm,Calm,-,N/A,,Overcast,0,2012-12-05 16:26:00
8:53 AM,57.0,54.0,89,30.14,2.0,Calm,Calm,-,N/A,,Overcast,0,2012-12-05 16:53:00
9:53 AM,60.1,55.0,83,30.14,2.5,Variable,3.5,-,N/A,,Haze,0,2012-12-05 17:53:00
10:53 AM,61.0,55.9,83,30.12,3.0,Calm,Calm,-,N/A,,Haze,0,2012-12-05 18:53:00
11:33 AM,62.6,55.4,77,30.10,6.0,Variable,4.6,-,N/A,,Haze,0,2012-12-05 19:33:00
11:53 AM,63.0,55.0,75,30.09,10.0,SSW,8.1,-,N/A,,Mostly Cloudy,200,2012-12-05 19:53:00
12:32 PM,64.4,55.4,73,30.07,10.0,SSW,3.5,-,N/A,,Scattered Clouds,210,2012-12-05 20:32:00
12:53 PM,64.9,55.9,73,30.06,10.0,Variable,3.5,-,N/A,,Partly Cloudy,0,2012-12-05 20:53:00
1:53 PM,66.0,55.0,68,30.04,10.0,SW,8.1,-,N/A,,Scattered Clouds,220,2012-12-05 21:53:00
2:53 PM,66.0,55.9,70,30.02,10.0,SSW,5.8,-,N/A,,Scattered Clouds,210,2012-12-05 22:53:00
3:53 PM,64.9,55.0,70,30.02,10.0,SW,6.9,-,N/A,,Scattered Clouds,220,2012-12-05 23:53:00
4:53 PM,62.1,55.9,80,30.02,10.0,SSW,6.9,-,N/A,,Mostly Cloudy,200,2012-12-06 00:53:00
5:06 PM,62.6,55.4,77,30.02,10.0,SW,5.8,-,N/A,,Partly Cloudy,220,2012-12-06 01:06:00
5:19 PM,62.6,55.4,77,30.02,10.0,South,5.8,-,N/A,,Mostly Cloudy,190,2012-12-06 01:19:00
5:41 PM,62.6,55.4,77,30.02,10.0,South,5.8,-,N/A,,Scattered Clouds,190,2012-12-06 01:41:00
5:53 PM,62.1,55.9,80,30.03,10.0,South,4.6,-,N/A,,Scattered Clouds,190,2012-12-06 01:53:00
6:53 PM,61.0,55.0,81,30.03,5.0,South,4.6,-,N/A,,Scattered Clouds,180,2012-12-06 02:53:00
7:53 PM,61.0,55.0,81,30.04,6.0,Calm,Calm,-,N/A,,Partly Cloudy,0,2012-12-06 03:53:00
8:34 PM,60.8,55.4,82,30.04,5.0,Calm,Calm,-,N/A,,Mostly Cloudy,0,2012-12-06 04:34:00
8:53 PM,61.0,55.0,81,30.05,5.0,Calm,Calm,-,N/A,,Overcast,0,2012-12-06 04:53:00
9:29 PM,60.8,53.6,77,30.04,5.0,Calm,Calm,-,N/A,,Overcast,0,2012-12-06 05:29:00
9:53 PM,61.0,54.0,78,30.04,5.0,Calm,Calm,-,N/A,,Overcast,0,2012-12-06 05:53:00
10:32 PM,62.6,55.4,77,30.05,5.0,Calm,Calm,-,N/A,,Overcast,0,2012-12-06 06:32:00
10:53 PM,62.1,55.0,78,30.04,5.0,Calm,Calm,-,N/A,,Overcast,0,2012-12-06 06:53:00
11:53 PM,62.1,55.0,78,30.03,7.0,ESE,4.6,-,N/A,,Overcast,110,2012-12-06 07:53:00